[[{"header":{"parameterUnit":"m.s-1","parameterCategory":1,"la1":30.2991,"la2":30.254,"lo1":-89.0895,"lo2":-89.0444,"dy":0.0017,"dx":0.0017,"nx":28,"ny":28,"refTime":"2024-11-27T09:00:00:Z","depth":0,"parameterNumber":2,"parameterNumberName":"U-component_of_WINDS"},"data":[0,0,0,0,0,0,0,0,0,0,0,0,0,0,0,0,0,0,0,0,0,0,0,0,0,0,0,0,0,0,0,0,0,0,0,0,0,0,0,0,0,0,0,0,0,0,0,0,0,0,0,0,0,0,0,0,0,0,-1.2184,-1.2185,0,-1.2217,-1.2217,-1.2217,-1.2204,-1.2204,-1.2203,-1.2202,-1.2235,-1.2237,-1.2239,0,0,0,0,0,0,0,0,0,0,0,0,0,-1.2111,-1.2112,-1.2184,-1.2185,-1.2185,-1.2217,-1.2217,-1.2217,-1.2204,-1.2203,-1.2203,-1.2202,-1.2235,-1.2237,-1.2239,0,0,0,0,0,0,0,0,0,0,0,0,0,-1.2143,-1.2113,-1.2184,-1.2182,-1.2183,-1.2216,-1.2217,-1.2218,-1.2205,-1.2203,-1.2202,-1.2201,-1.2234,-1.2237,-1.2239,-1.2277,0,0,-1.2246,-1.2247,0,0,0,0,0,0,0,0,-1.2141,-1.2146,-1.2182,-1.2183,-1.2183,-1.2205,-1.2203,-1.2237,-1.2205,-1.2196,-1.2202,-1.2201,-1.2226,-1.2229,-1.2238,-1.2278,-1.228,-1.2247,-1.2248,-1.2249,-1.225,0,0,0,0,0,0,0,-1.2139,-1.2144,-1.2197,-1.2183,-1.2183,-1.218,-1.2183,-1.221,-1.2217,-1.2197,-1.2196,-1.22,-1.2226,-1.2236,-1.2239,-1.228,-1.2246,-1.2249,-1.225,-1.2251,-1.2351,-1.2352,0,0,0,0,0,0,-1.2137,-1.2143,-1.2196,-1.2198,-1.2159,-1.2182,-1.2186,-1.2199,-1.2217,-1.2219,-1.2201,-1.2199,-1.2232,-1.2236,-1.224,-1.2284,-1.2249,-1.2251,-1.2253,-1.235,-1.2352,-1.2353,0,0,0,0,0,0,-1.2135,-1.2142,-1.2195,-1.217,-1.2177,-1.2185,-1.22,-1.22,-1.221,-1.222,-1.2221,-1.2209,-1.2231,-1.2236,-1.2267,-1.2285,-1.2252,-1.2255,-1.2349,-1.235,-1.2352,-1.2373,0,0,0,0,0,0,-1.2133,-1.2141,-1.2156,-1.2171,-1.2178,-1.2222,-1.2201,-1.2202,-1.2214,-1.2212,-1.2228,-1.223,-1.2231,-1.2264,-1.227,-1.2288,-1.2256,-1.2347,-1.2349,-1.2352,-1.2371,-1.2376,-1.238,0,0,0,0,0,-1.2131,-1.2161,-1.2157,-1.2163,-1.2197,-1.2223,-1.2227,-1.2228,-1.2215,-1.223,-1.2236,-1.2229,-1.2282,-1.2267,-1.2273,-1.2293,-1.2346,-1.2349,-1.2351,-1.2369,-1.2375,-1.238,0,0,0,0,0,0,-1.2149,-1.2163,-1.2158,-1.2195,-1.2208,-1.2221,-1.224,-1.2234,-1.2251,-1.2249,-1.2249,-1.2253,-1.2284,-1.2292,-1.2274,-1.2329,-1.2312,-1.2316,-1.2323,-1.2329,-1.2333,-1.2331,-1.2258,0,0,0,0,0,-1.2157,-1.2178,-1.2189,-1.222,-1.2226,-1.2232,-1.2243,-1.2243,-1.2256,-1.2262,-1.2271,-1.2284,-1.2304,-1.2317,-1.2335,-1.2372,-1.2375,-1.2388,-1.2392,-1.2396,-1.24,-1.2418,-1.2424,-1.2362,-1.2362,-1.2362,0,0,-1.2175,-1.2185,-1.2198,-1.2224,-1.2234,-1.2255,-1.2237,-1.226,-1.2275,-1.2266,-1.2295,-1.2302,-1.2317,-1.235,-1.2365,-1.2357,-1.2417,-1.2399,-1.2402,-1.2404,-1.2422,-1.2428,-1.2433,-1.2364,-1.2363,-1.2363,0,0,-1.2217,-1.2227,-1.2253,-1.2263,-1.2278,-1.2281,-1.2288,-1.2301,-1.2305,-1.2334,-1.2327,-1.2345,-1.2379,-1.239,-1.24,-1.2444,-1.2437,-1.245,-1.2472,-1.249,-1.2495,-1.25,-1.2515,-1.252,-1.2453,-1.2453,-1.2453,0,-1.2237,-1.2268,-1.2267,-1.2291,-1.2302,-1.2293,-1.2319,-1.2329,-1.235,-1.2357,-1.2347,-1.2389,-1.2398,-1.2434,-1.2444,-1.2453,-1.2459,-1.2448,-1.2495,-1.2499,-1.2503,-1.2517,-1.2523,-1.2455,-1.2455,-1.2454,-1.2454,0,-1.2291,-1.2313,-1.2332,-1.2351,-1.2364,-1.2389,-1.2392,-1.2405,-1.2402,-1.2406,-1.2435,-1.2446,-1.2466,-1.2475,-1.2473,-1.2509,-1.2504,-1.2494,-1.2477,-1.251,-1.2524,-1.2529,-1.2457,-1.2456,-1.2456,-1.2456,0,0,-1.2347,-1.2364,-1.2371,-1.2379,-1.2395,-1.2411,-1.2435,-1.2454,-1.2465,-1.2479,-1.2498,-1.2526,-1.2517,-1.2528,-1.2528,-1.2544,-1.2577,-1.2532,-1.2532,-1.2539,-1.2616,-1.2623,-1.2629,-1.2572,-1.2573,-1.2574,-1.2615,0,-1.239,-1.2432,-1.2431,-1.2469,-1.2488,-1.2479,-1.25,-1.2511,-1.2515,-1.2532,-1.2536,-1.2555,-1.2542,-1.2549,-1.2564,-1.2569,-1.2592,-1.2566,-1.259,-1.2591,-1.2586,-1.2637,-1.2644,-1.2682,-1.262,-1.2621,-1.2622,0,-1.2446,-1.2461,-1.2501,-1.2512,-1.252,-1.2538,-1.2555,-1.2571,-1.2583,-1.2585,-1.2596,-1.2592,-1.2616,-1.2597,-1.2629,-1.2612,-1.2621,-1.2625,-1.2626,-1.2629,-1.2608,-1.264,-1.2694,-1.27,-1.263,-1.2629,-1.2629,0,-1.2482,-1.2512,-1.254,-1.2547,-1.2561,-1.2573,-1.258,-1.2591,-1.2602,-1.2616,-1.2623,-1.264,-1.2649,-1.2662,-1.2663,-1.265,-1.2694,-1.2676,-1.2696,-1.2696,-1.2706,-1.2705,-1.2762,-1.2712,-1.2712,-1.2712,-1.2712,0,-1.253,-1.2555,-1.2556,-1.2573,-1.26,-1.2598,-1.2625,-1.263,-1.2639,-1.2656,-1.265,-1.2666,-1.2666,-1.2682,-1.2683,-1.2708,-1.2713,-1.2714,-1.2714,-1.2715,-1.2714,-1.2721,-1.2718,-1.2714,-1.2713,-1.2713,-1.2713,0,-1.2575,-1.2577,-1.2606,-1.2616,-1.2619,-1.2638,-1.2647,-1.2662,-1.2665,-1.2687,-1.2692,-1.2696,-1.2715,-1.2716,-1.2738,-1.2738,-1.2769,-1.2766,-1.2765,-1.2764,-1.2783,-1.2781,-1.2846,-1.2854,-1.28,-1.28,-1.2801,0,-1.2606,-1.2625,-1.2636,-1.2647,-1.2653,-1.2671,-1.2682,-1.268,-1.2692,-1.2706,-1.272,-1.2738,-1.2752,-1.2782,-1.2787,-1.2804,-1.2801,-1.2822,-1.2803,-1.2803,-1.28,-1.2799,-1.28,-1.2826,-1.2827,-1.2827,-1.2828,0,-1.266,-1.2659,-1.2675,-1.269,-1.2703,-1.2716,-1.2727,-1.2736,-1.2736,-1.2749,-1.2768,-1.2779,-1.28,-1.2818,-1.2834,-1.284,-1.2834,-1.2833,-1.2839,-1.284,-1.2838,-1.2838,-1.2775,-1.2832,-1.2832,-1.2831,-1.2831,-1.2831,-1.2698,-1.2714,-1.2724,-1.2741,-1.2749,-1.2759,-1.2774,-1.2778,-1.2794,-1.2811,-1.2809,-1.2829,-1.2839,-1.286,-1.2867,-1.2882,-1.2875,-1.2883,-1.2885,-1.2887,-1.2888,-1.2835,-1.2885,-1.2885,-1.2885,-1.2885,-1.2885,0,-1.2751,-1.2756,-1.2772,-1.2788,-1.2801,-1.2793,-1.2805,-1.2817,-1.2835,-1.2845,-1.2858,-1.2879,-1.2896,-1.2901,-1.2917,-1.2928,-1.2926,-1.2933,-1.2932,-1.2933,-1.2894,-1.2888,-1.2934,-1.2934,-1.2934,-1.2934,-1.2934,-1.2934,-1.278,-1.2805,-1.2806,-1.2835,-1.284,-1.286,-1.2867,-1.2876,-1.2884,-1.2907,-1.2921,-1.2924,-1.2931,-1.2948,-1.2962,-1.2963,-1.2969,-1.2977,-1.2977,-1.2941,-1.2936,-1.2931,-1.2925,-1.2978,-1.2978,-1.3014,-1.3014,-1.3015]},{"header":{"parameterUnit":"m.s-1","parameterCategory":1,"la1":30.2991,"la2":30.254,"lo1":-89.0895,"lo2":-89.0444,"dy":0.0017,"dx":0.0017,"nx":28,"ny":28,"refTime":"2024-11-27T09:00:00:Z","depth":0,"parameterNumber":3,"parameterNumberName":"V-component_of_WINDS"},"data":[0,0,0,0,0,0,0,0,0,0,0,0,0,0,0,0,0,0,0,0,0,0,0,0,0,0,0,0,0,0,0,0,0,0,0,0,0,0,0,0,0,0,0,0,0,0,0,0,0,0,0,0,0,0,0,0,0,0,-3.0848,-3.0849,0,-3.096,-3.0961,-3.0963,-3.0973,-3.0972,-3.097,-3.0969,-3.1079,-3.1083,-3.1087,0,0,0,0,0,0,0,0,0,0,0,0,0,-3.0636,-3.0639,-3.0847,-3.0849,-3.085,-3.096,-3.0961,-3.0963,-3.0973,-3.0972,-3.097,-3.0969,-3.1078,-3.1082,-3.1087,0,0,0,0,0,0,0,0,0,0,0,0,0,-3.0736,-3.0641,-3.0847,-3.0869,-3.0872,-3.0959,-3.0961,-3.0963,-3.0973,-3.0971,-3.097,-3.0968,-3.1076,-3.1082,-3.1088,-3.116,0,0,-3.1106,-3.1109,0,0,0,0,0,0,0,0,-3.073,-3.0743,-3.0864,-3.0867,-3.0871,-3.0951,-3.0927,-3.1029,-3.0974,-3.0935,-3.0969,-3.0967,-3.1037,-3.1046,-3.1071,-3.1165,-3.117,-3.1107,-3.111,-3.1113,-3.1115,0,0,0,0,0,0,0,-3.0723,-3.0739,-3.0892,-3.0866,-3.087,-3.0871,-3.0883,-3.0946,-3.0994,-3.0938,-3.0939,-3.0952,-3.1039,-3.1065,-3.1074,-3.1172,-3.1107,-3.1112,-3.1116,-3.1118,-3.133,-3.1332,0,0,0,0,0,0,-3.0713,-3.0733,-3.0888,-3.0895,-3.0795,-3.0876,-3.089,-3.0927,-3.0994,-3.1002,-3.0954,-3.0952,-3.1056,-3.1067,-3.1078,-3.1167,-3.1113,-3.1119,-3.1122,-3.1328,-3.133,-3.1332,0,0,0,0,0,0,-3.0708,-3.0727,-3.0884,-3.0814,-3.0834,-3.0882,-3.0923,-3.093,-3.0957,-3.1006,-3.1014,-3.0973,-3.1055,-3.1069,-3.114,-3.117,-3.1121,-3.1127,-3.1325,-3.1328,-3.1331,-3.1345,0,0,0,0,0,0,-3.0702,-3.0725,-3.0754,-3.0815,-3.0838,-3.0946,-3.0925,-3.0933,-3.0968,-3.0967,-3.1025,-3.1033,-3.1055,-3.1131,-3.1146,-3.1178,-3.1131,-3.1323,-3.1327,-3.133,-3.1342,-3.1348,-3.1353,0,0,0,0,0,-3.0695,-3.0753,-3.0756,-3.0774,-3.0876,-3.0948,-3.0961,-3.0986,-3.097,-3.0999,-3.103,-3.1031,-3.1165,-3.1138,-3.1155,-3.1189,-3.1321,-3.1326,-3.133,-3.1339,-3.1347,-3.1353,0,0,0,0,0,0,-3.0692,-3.0761,-3.0765,-3.0845,-3.0891,-3.0949,-3.0987,-3.0993,-3.1042,-3.1039,-3.1066,-3.1079,-3.1149,-3.1176,-3.1145,-3.1262,-3.1241,-3.1249,-3.1242,-3.125,-3.1255,-3.1247,-3.1136,0,0,0,0,0,-3.0701,-3.0756,-3.0812,-3.0877,-3.09,-3.0939,-3.0971,-3.0987,-3.1034,-3.1053,-3.1089,-3.1134,-3.1186,-3.1219,-3.127,-3.1346,-3.1358,-3.1378,-3.1383,-3.1388,-3.1394,-3.1436,-3.1445,-3.1347,-3.1347,-3.1347,0,0,-3.072,-3.0764,-3.0797,-3.0877,-3.0914,-3.0968,-3.0955,-3.1012,-3.1052,-3.1061,-3.113,-3.1159,-3.121,-3.1283,-3.1318,-3.1308,-3.1424,-3.1393,-3.1397,-3.1401,-3.1441,-3.1451,-3.1459,-3.135,-3.135,-3.1349,0,0,-3.0782,-3.0821,-3.088,-3.0917,-3.0975,-3.1,-3.1014,-3.1072,-3.1092,-3.1162,-3.117,-3.1216,-3.1305,-3.1341,-3.1371,-3.1446,-3.1449,-3.1462,-3.1491,-3.1531,-3.1539,-3.1546,-3.1572,-3.1581,-3.1468,-3.1468,-3.1468,0,-3.0798,-3.0881,-3.0908,-3.0966,-3.1001,-3.1013,-3.1071,-3.1106,-3.1175,-3.1198,-3.1187,-3.1299,-3.1334,-3.1416,-3.1435,-3.1459,-3.1474,-3.1455,-3.1536,-3.1543,-3.155,-3.1576,-3.1585,-3.147,-3.1469,-3.1469,-3.1469,0,-3.0897,-3.0954,-3.0994,-3.1063,-3.1102,-3.116,-3.1194,-3.123,-3.1242,-3.1268,-3.1339,-3.1382,-3.1441,-3.1462,-3.1473,-3.1545,-3.1538,-3.1531,-3.151,-3.156,-3.1585,-3.1594,-3.1471,-3.1471,-3.147,-3.147,0,0,-3.096,-3.1045,-3.1059,-3.109,-3.1154,-3.1198,-3.1255,-3.1315,-3.1344,-3.1392,-3.1439,-3.1514,-3.1509,-3.1543,-3.1558,-3.1593,-3.1649,-3.1583,-3.1584,-3.1593,-3.1731,-3.1735,-3.1746,-3.1651,-3.1653,-3.1655,-3.1726,0,-3.1029,-3.1134,-3.116,-3.1249,-3.1301,-3.1313,-3.1363,-3.1406,-3.1432,-3.1479,-3.1507,-3.156,-3.1549,-3.1569,-3.1605,-3.1635,-3.1677,-3.163,-3.1695,-3.1697,-3.1682,-3.1759,-3.1764,-3.1829,-3.1736,-3.1737,-3.1739,0,-3.1124,-3.1175,-3.127,-3.1326,-3.1349,-3.1394,-3.145,-3.1496,-3.1544,-3.156,-3.1599,-3.161,-3.1669,-3.1645,-3.1724,-3.1692,-3.1719,-3.1738,-3.1741,-3.1748,-3.1721,-3.1767,-3.185,-3.186,-3.1754,-3.1753,-3.1751,0,-3.116,-3.1253,-3.1321,-3.1348,-3.1416,-3.1446,-3.1476,-3.1523,-3.1557,-3.1606,-3.1628,-3.1682,-3.1711,-3.1752,-3.1777,-3.1757,-3.1854,-3.1833,-3.1868,-3.1867,-3.1888,-3.1886,-3.1976,-3.1906,-3.1906,-3.1905,-3.1905,0,-3.1234,-3.1291,-3.1339,-3.1381,-3.1445,-3.1473,-3.1535,-3.1564,-3.1606,-3.1652,-3.1665,-3.1708,-3.1739,-3.1785,-3.1805,-3.1868,-3.1881,-3.1894,-3.1899,-3.1893,-3.1892,-3.1912,-3.1908,-3.1908,-3.1908,-3.1907,-3.1907,0,-3.1286,-3.132,-3.1395,-3.1454,-3.147,-3.1514,-3.1563,-3.1604,-3.163,-3.1688,-3.1704,-3.1744,-3.18,-3.183,-3.1898,-3.1912,-3.1981,-3.1983,-3.1966,-3.1968,-3.2001,-3.1998,-3.2107,-3.2123,-3.2042,-3.2043,-3.2044,0,-3.1331,-3.1375,-3.1439,-3.1472,-3.1503,-3.1555,-3.1591,-3.162,-3.1656,-3.1714,-3.1747,-3.1804,-3.1851,-3.1938,-3.1973,-3.2025,-3.2028,-3.2063,-3.2036,-3.2029,-3.2029,-3.2026,-3.203,-3.2068,-3.2069,-3.2069,-3.207,0,-3.1407,-3.1422,-3.1473,-3.1531,-3.1573,-3.1619,-3.1664,-3.169,-3.1726,-3.1765,-3.1824,-3.186,-3.1931,-3.1987,-3.2042,-3.207,-3.2075,-3.2078,-3.2089,-3.2084,-3.2071,-3.2078,-3.1978,-3.2075,-3.2075,-3.2074,-3.2074,-3.2074,-3.1456,-3.1496,-3.1548,-3.1604,-3.1642,-3.1684,-3.1725,-3.1757,-3.1807,-3.1868,-3.1882,-3.1943,-3.1989,-3.2064,-3.2093,-3.214,-3.2133,-3.2149,-3.2153,-3.2156,-3.2157,-3.2064,-3.215,-3.215,-3.215,-3.215,-3.215,0,-3.1533,-3.1567,-3.1619,-3.1683,-3.1727,-3.173,-3.1781,-3.1817,-3.1871,-3.1915,-3.1961,-3.2027,-3.2081,-3.212,-3.2174,-3.2204,-3.2208,-3.2217,-3.2215,-3.2221,-3.2161,-3.2146,-3.2213,-3.2213,-3.2213,-3.2213,-3.2213,-3.2213,-3.1578,-3.1646,-3.1666,-3.1752,-3.1785,-3.1847,-3.1875,-3.1913,-3.1949,-3.2023,-3.2068,-3.2094,-3.2135,-3.2193,-3.2241,-3.2251,-3.227,-3.228,-3.2289,-3.2232,-3.2225,-3.2219,-3.2205,-3.2284,-3.2284,-3.2346,-3.2346,-3.2347]}]]